This is the latest recevied weather packets stored in our database for station/object SR8NGO-1. If no packets are shown the sender has not sent any weather packets the latest 1 day(s).
| Time | Temp. | Humidity | Pressure | Rain* | Wind** | Luminosity | Snow |
|---|---|---|---|---|---|---|---|
| 1778018688 | 16.11° C | 55% | 997.7 hPa | 124.97 mm | 2.68 m/s, 173° | - | - |
| 1778018448 | 16.11° C | 55% | 997.7 hPa | 124.97 mm | 2.24 m/s, 138° | - | - |
| 1778018208 | 16.11° C | 55% | 997.7 hPa | 124.97 mm | 3.13 m/s, 194° | - | - |
| 1778017968 | 16.11° C | 55% | 997.8 hPa | 125.98 mm | 1.79 m/s, 138° | - | - |
| 1778017728 | 16.11° C | 55% | 997.8 hPa | 125.98 mm | 2.24 m/s, 166° | - | - |
| 1778017488 | 16.11° C | 55% | 997.8 hPa | 125.98 mm | 1.79 m/s, 162° | - | - |
| 1778017248 | 16.11° C | 54% | 997.8 hPa | 125.98 mm | 2.24 m/s, 145° | - | - |
| 1778017008 | 16.11° C | 54% | 997.8 hPa | 125.98 mm | 2.24 m/s, 155° | - | - |
| 1778016768 | 16.11° C | 54% | 997.8 hPa | 125.98 mm | 2.24 m/s, 166° | - | - |
| 1778016528 | 16.11° C | 54% | 997.8 hPa | 125.98 mm | 2.24 m/s, 168° | - | - |
| 1778016288 | 16.11° C | 54% | 997.8 hPa | 125.98 mm | 2.68 m/s, 127° | - | - |
| 1778016048 | 16.11° C | 54% | 997.8 hPa | 125.98 mm | 3.13 m/s, 177° | - | - |
| 1778015808 | 16.11° C | 53% | 997.8 hPa | 125.98 mm | 2.68 m/s, 189° | - | - |
| 1778015568 | 16.11° C | 53% | 997.8 hPa | 125.98 mm | 2.24 m/s, 166° | - | - |
| 1778015328 | 16.11° C | 53% | 997.8 hPa | 125.98 mm | 1.79 m/s, 166° | - | - |
| 1778015088 | 16.11° C | 53% | 997.8 hPa | 125.98 mm | 1.79 m/s, 172° | - | - |
| 1778014848 | 16.11° C | 52% | 997.8 hPa | 125.98 mm | 2.68 m/s, 166° | - | - |
| 1778014608 | 16.11° C | 52% | 997.8 hPa | 125.98 mm | 1.34 m/s, 151° | - | - |
| 1778014368 | 17.22° C | 52% | 997.8 hPa | 125.98 mm | 1.79 m/s, 194° | - | - |
| 1778014128 | 16.11° C | 52% | 997.8 hPa | 125.98 mm | 1.79 m/s, 162° | - | - |
| 1778013887 | 17.22° C | 51% | 997.9 hPa | 125.98 mm | 1.34 m/s, 172° | - | - |
| 1778013648 | 17.22° C | 51% | 997.9 hPa | 125.98 mm | 1.79 m/s, 123° | - | - |
| 1778013408 | 17.22° C | 51% | 997.9 hPa | 125.98 mm | 2.24 m/s, 151° | - | - |
| 1778013168 | 17.22° C | 50% | 997.9 hPa | 125.98 mm | 2.24 m/s, 149° | - | - |
| 1778012927 | 17.22° C | 50% | 997.9 hPa | 125.98 mm | 1.79 m/s, 149° | - | - |
* Rain latest hour (hover to see other rain measurements)
** Current wind speed in m/s (hover to see current wind gust speed)